Printer-friendly version

IAU Minor Planet Center

Minor Planet Center

MPEC 2007-K62 : 2007 KF7

The following Minor Planet Electronic Circular may be linked-to from your own Web pages, but must not otherwise be redistributed electronically.


Read MPEC 2007-K61 Read MPEC 2007-K63


M.P.E.C. 2007-K62                                Issued 2007 May 29, 10:45 UT

     The Minor Planet Electronic Circulars contain information on unusual
         minor planets and routine data on comets.  They are published
   on behalf of Commission 20 of the International Astronomical Union by the
          Minor Planet Center, Smithsonian Astrophysical Observatory,
                          Cambridge, MA 02138, U.S.A.

             Prepared using the Tamkin Foundation Computer Network

                              MPC@CFA.HARVARD.EDU
          URL http://www.cfa.harvard.edu/iau/mpc.html  ISSN 1523-6714

                                   2007 KF7

Observations:
     K07K07F* C2007 05 25.34605 16 15 50.47 -19 48 38.4          18.2 V EK062G96
     K07K07F  C2007 05 25.35270 16 15 53.56 -19 50 57.6          17.7 V EK062G96
     K07K07F  C2007 05 25.35931 16 15 56.66 -19 53 16.0          17.5 V EK062G96
     K07K07F  C2007 05 25.36598 16 15 59.76 -19 55 35.5          18.4 V EK062G96
     K07K07F  C2007 05 25.36640 16 15 59.97 -19 55 44.6          18.3 V EK062G96
     K07K07F  C2007 05 25.36682 16 16 00.15 -19 55 53.1          18.4 V EK062G96
     K07K07F  C2007 05 25.36723 16 16 00.37 -19 56 02.0          18.5 V EK062G96
     K07K07F  C2007 05 25.42731 16 16 28.84 -20 16 54.3          18.6 V EK062G96
     K07K07F  C2007 05 25.42826 16 16 29.31 -20 17 14.4          18.3 V EK062G96
     K07K07F  C2007 05 25.42929 16 16 29.82 -20 17 35.6          18.5 V EK062G96
     K07K07F  C2007 05 25.43031 16 16 30.32 -20 17 57.0          18.2 V EK062G96
     K07K07F  C2007 05 25.63557 16 18 27.84 -21 27 07.2          18.5 R EK062E12
     K07K07F FC2007 05 25.63708 16 18 28.63 -21 27 37.0          18.5 R EK062E12
     K07K07F  C2007 05 25.63863 16 18 29.27 -21 28 11.1          18.6 R EK062E12
     K07K07F  C2007 05 26.40340 16 25 49.32 -26 03 07.4                 EK062G96
     K07K07F  C2007 05 26.40396 16 25 49.61 -26 03 19.3                 EK062G96
     K07K07F  C2007 05 26.40450 16 25 49.95 -26 03 31.3                 EK062G96
     K07K07F  C2007 05 26.68654 16 28 42.74 -27 40 53.1          18.5 R EK062E12
     K07K07F  C2007 05 26.68962 16 28 44.48 -27 41 57.2          18.5 R EK062E12
     K07K07F  C2007 05 26.69245 16 28 46.06 -27 42 57.4          18.4 R EK062E12
     K07K07F  C2007 05 26.69608 16 28 48.03 -27 44 13.4                 EK062E12
     K07K07F 5C2007 05 27.31509 16 35 38.14 -31 27 30.5          19.2 R EK062673
     K07K07F 5C2007 05 27.31771 16 35 39.65 -31 28 25.8                 EK062673
     K07K07F 5C2007 05 27.33083 16 35 47.37 -31 33 04.2                 EK062673
     K07K07F 5C2007 05 27.33403 16 35 49.21 -31 34 11.6                 EK062673
     K07K07F 5C2007 05 27.33935 16 35 52.35 -31 36 04.6                 EK062673

Observer details:
673 Table Mountain Observatory, Wrightwood.  Observer J. Young.  0.61-m f/16
    Cassegrain + CCD.
E12 Siding Spring Survey.  Observer R. H. McNaught.  0.5-m Uppsala Schmidt
    + CCD.
G96 Mt. Lemmon Survey.  Observer R. E. Hill.  Measurers E. C. Beshore,
    A. Boattini, G. J. Garradd, A. R. Gibbs, A. D. Grauer, R. E. Hill,
    R. A. Kowalski, S. M. Larson, R. H. McNaught.  1.5-m reflector + CCD.

Orbital elements:
2007 KF7                                                 Earth MOID = 0.0426 AU
Epoch 2007 Apr. 10.0 TT = JDT 2454200.5                 MPC
M 338.14849              (2000.0)            P               Q
n   0.42983538     Peri.  185.58051     -0.34994260     +0.91791980
a   1.7388733      Node    64.05256     -0.85122674     -0.22825391
e   0.3933853      Incl.   12.00207     -0.39109234     -0.32453565
P   2.29           H   24.9           G   0.15           U   6
Residuals in seconds of arc
070525 G96  0.0   0.1+    070525 G96  0.5-  0.2-    070526 E12  0.2-  1.0+
070525 G96  0.1+  0.1+    070525 G96  0.4-  0.4-    070526 E12  0.1-  0.5+
070525 G96  0.4+  0.1-    070525 E12  0.7+  0.8+    070526 E12  0.8-  1.1+
070525 G96  0.2+  0.2-    070525 E12  1.6+  2.8+    070527 673  0.9+  0.4-
070525 G96  0.4+  0.5-    070525 E12  0.1+  1.4+    070527 673  0.5+  0.0
070525 G96  0.2+  0.2-    070526 G96  0.6-  1.9-    070527 673  0.6+  0.2+
070525 G96  0.6+  0.5-    070526 G96  0.8-  2.0-    070527 673  0.1+  0.6+
070525 G96  0.7-  0.1-    070526 G96  0.1-  2.5-    070527 673  0.2+  0.3+
070525 G96  0.6-  0.5-    070526 E12  0.6-  0.0

Ephemeris:
2007 KF7                 a,e,i = 1.74, 0.39, 12                  q = 1.0548
Date    TT    R. A. (2000) Decl.     Delta      r     Elong.  Phase     V
2007 05 30    17 10.46   -46 10.9    0.0457   1.055   153.8    25.1    19.5
2007 05 31    17 26.25   -50 53.4    0.0476   1.055   148.9    29.8    19.7
2007 06 01    17 43.71   -55 03.0    0.0498   1.055   144.4    34.0    19.9
2007 06 02    18 02.84   -58 38.6    0.0524   1.055   140.4    37.8    20.1
2007 06 03    18 23.55   -61 40.7    0.0553   1.055   136.9    41.1    20.3
2007 06 04    18 45.63   -64 11.0    0.0585   1.056   133.7    44.0    20.5
2007 06 05    19 08.73   -66 12.2    0.0618   1.056   131.0    46.4    20.7
2007 06 06    19 32.38   -67 47.2    0.0654   1.057   128.7    48.6    20.9
2007 06 07    19 56.03   -68 59.3    0.0690   1.057   126.6    50.4    21.1
2007 06 08    20 19.15   -69 52.0    0.0728   1.058   124.8    51.9    21.2
2007 06 09    20 41.25   -70 28.4    0.0767   1.059   123.3    53.2    21.4
2007 06 10    21 01.96   -70 51.8    0.0806   1.060   122.0    54.3    21.5
2007 06 11    21 21.06   -71 05.0    0.0847   1.061   120.8    55.3    21.7
2007 06 12    21 38.44   -71 10.1    0.0887   1.062   119.8    56.0    21.8
2007 06 13    21 54.09   -71 09.3    0.0929   1.064   119.0    56.6    21.9
2007 06 14    22 08.09   -71 04.1    0.0970   1.065   118.3    57.1    22.0
2007 06 15    22 20.55   -70 55.8    0.101    1.067   117.7    57.5    22.1
2007 06 16    22 31.60   -70 45.3    0.105    1.068   117.2    57.8    22.2
2007 06 17    22 41.37   -70 33.3    0.110    1.070   116.8    58.0    22.3
2007 06 18    22 50.01   -70 20.4    0.114    1.072   116.5    58.1    22.4
2007 06 19    22 57.64   -70 07.0    0.118    1.074   116.2    58.1    22.5

Timothy B. Spahr             (C) Copyright 2007 MPC           M.P.E.C. 2007-K62

Read MPEC 2007-K61 Read MPEC 2007-K63


Our Web policy. Index to the CBAT/MPC/ICQ pages.


Valid HTML 4.01!